Estación de Sagrada Familia

Ultimos registro cada 15 minutos 54
Estación Fecha / Hora Temperatura Humedad Lluvia Velocidad Dirección Radiación Presion
54 Sagrada Familia 04-05-2026 13:15 18,4 64 0 0 52 301 1016,6
53 Sagrada Familia 04-05-2026 13:00 17,8 67 0 0 69 292 1016,7
52 Sagrada Familia 04-05-2026 12:45 17,5 68 0 0 34 243 1016,8
51 Sagrada Familia 04-05-2026 12:30 16,2 74 0 0 23 267 1017,2
50 Sagrada Familia 04-05-2026 12:15 16,2 74 0 0 23 267 1017,2
49 Sagrada Familia 04-05-2026 12:00 15,7 78 0 0 158 267 1017,4
48 Sagrada Familia 04-05-2026 11:45 15 78 0 0 102 204 1017,5
47 Sagrada Familia 04-05-2026 11:30 14,7 82 0 0 9 229 1017,4
46 Sagrada Familia 04-05-2026 11:15 14,2 84 0 0 67 213 1017,5
45 Sagrada Familia 04-05-2026 11:00 13,5 86 0 0 92 211 1017,4
44 Sagrada Familia 04-05-2026 10:45 12,9 89 0 0 127 183 1017,5
43 Sagrada Familia 04-05-2026 10:30 12,3 91 0 0 178 134 1017,4
42 Sagrada Familia 04-05-2026 10:15 12,1 94 0 0 163 114 1017,5
41 Sagrada Familia 04-05-2026 10:00 11,7 95 0 0 27 104 1017,2
40 Sagrada Familia 04-05-2026 09:45 11,4 95 0 0 27 88 1017,3
39 Sagrada Familia 04-05-2026 09:30 11,1 96 0 0 27 107 1017,2
38 Sagrada Familia 04-05-2026 09:15 10,7 96 0 0 163 107 1017,1
37 Sagrada Familia 04-05-2026 09:00 10,3 96 0 0 163 76 1017
36 Sagrada Familia 04-05-2026 08:45 9,8 96 0 0 163 58 1016,9
35 Sagrada Familia 04-05-2026 08:30 9,1 96 0 0 163 70 1016,9
34 Sagrada Familia 04-05-2026 08:15 8,7 96 0 0 163 42 1016,6
33 Sagrada Familia 04-05-2026 08:00 8,3 95 0 0 163 32 1016,7
32 Sagrada Familia 04-05-2026 07:45 8,1 95 0 0 163 18 1016,6
31 Sagrada Familia 04-05-2026 07:30 7,8 95 0 0 163 5 1016,6
30 Sagrada Familia 04-05-2026 07:15 7,7 95 0 0 163 0 1016,6
29 Sagrada Familia 04-05-2026 07:00 7,6 94 0 0 163 0 1016,5
28 Sagrada Familia 04-05-2026 06:45 7,4 93 0 0 163 0 1016,4
27 Sagrada Familia 04-05-2026 06:30 7,6 93 0 0 163 0 1016,4
26 Sagrada Familia 04-05-2026 06:15 7,9 93 0 0 163 0 1016,4
25 Sagrada Familia 04-05-2026 06:00 8,2 93 0 0 163 0 1016,3
24 Sagrada Familia 04-05-2026 05:45 8,4 93 0 0 163 0 1016,1
23 Sagrada Familia 04-05-2026 05:30 8,8 93 0 0 163 0 1016,3
22 Sagrada Familia 04-05-2026 05:15 9,1 93 0 0 163 0 1016,2
21 Sagrada Familia 04-05-2026 05:00 9,4 93 0 0 163 0 1016,2
20 Sagrada Familia 04-05-2026 04:45 9,6 93 0 0 163 0 1016,1
19 Sagrada Familia 04-05-2026 04:30 9,9 93 0 0 163 0 1015,8
18 Sagrada Familia 04-05-2026 04:15 10,1 94 0 0 163 0 1016,1
17 Sagrada Familia 04-05-2026 04:00 10,1 94 0 0 163 0 1016,2
16 Sagrada Familia 04-05-2026 03:45 10,1 94 0 0 163 0 1016,1
15 Sagrada Familia 04-05-2026 03:30 10,2 93 0 0 163 0 1016,4
14 Sagrada Familia 04-05-2026 03:15 10,2 93 0 0 163 0 1016,5
13 Sagrada Familia 04-05-2026 03:00 10,3 93 0 0 163 0 1016,7
12 Sagrada Familia 04-05-2026 02:45 10,5 93 0 0 163 0 1016,8
11 Sagrada Familia 04-05-2026 02:30 10,6 93 0 0 163 0 1016,7
10 Sagrada Familia 04-05-2026 02:15 10,8 93 0 0 163 0 1016,8
9 Sagrada Familia 04-05-2026 02:00 10,8 93 0 0 163 0 1017,2
8 Sagrada Familia 04-05-2026 01:45 10,9 93 0 0 163 0 1017,2
7 Sagrada Familia 04-05-2026 01:30 10,9 93 0 0 163 0 1017,2
6 Sagrada Familia 04-05-2026 01:15 10,9 93 0 0 163 0 1017,4
5 Sagrada Familia 04-05-2026 01:00 10,9 93 0 0 163 0 1017,3
4 Sagrada Familia 04-05-2026 00:45 11 93 0 0 163 0 1017,4
3 Sagrada Familia 04-05-2026 00:30 10,9 93 0 0 163 0 1017,8
2 Sagrada Familia 04-05-2026 00:15 11 92 0 0 163 0 1018
1 Sagrada Familia 04-05-2026 00:00 11,1 93 0 0 163 0 1018,1